Temp
13 13 13 13 13 13 13 13 13 13 12 12 12 12 12 13 13 13 13 13 13 13 13 13 13 13 13 13 12 13 13 13 12 12 12 12 12 12 12 12 12 12 12 12 12 12 12 12 12 12 12 12 12 12 12 12 13 13 13 13 13 13 13 13 14 14 14 14 14
13 13 13 13 13 13 13 13 13 12 12 12 12 12 12 13 13 13 14 13 13 13 13 13 13 13 13 13 13 13 13 13 12 12 12 12 12 12 12 12 12 12 13 13 13 12 12 12 12 12 12 12 12 12 12 12 13 13 13 13 13 13 13 13 13 14 14 14 14
13 13 13 13 13 13 13 13 13 12 12 12 12 12 12 12 13 13 13 14 14 13 13 13 13 13 13 13 13 13 13 13 13 12 12 12 12 13 13 12 12 13 13 13 13 13 13 12 12 12 12 12 12 12 12 12 13 13 13 13 13 13 13 13 13 13 14 14 14
13 13 13 13 13 13 13 13 13 12 12 12 12 12 12 12 12 12 13 14 14 13 13 13 13 13 13 13 13 13 13 13 13 13 13 12 13 13 13 13 13 13 13 13 13 13 13 13 12 12 12 12 12 12 12 13 13 13 13 13 13 13 13 13 13 13 13 14 14
13 13 13 13 13 13 13 13 13 12 12 12 12 12 12 12 12 12 13 13 14 13 13 13 13 13 13 13 13 13 13 13 13 13 13 13 13 13 13 13 13 13 13 13 13 13 13 13 12 12 12 12 12 12 13 13 13 13 13 13 13 13 13 13 13 13 13 13 14
13 13 13 13 13 13 13 13 13 12 12 12 12 12 12 12 12 12 12 13 13 14 13 13 13 13 13 13 13 13 13 13 13 13 13 13 13 13 13 13 13 13 13 13 13 13 13 13 12 12 12 12 12 13 13 13 13 13 13 13 13 13 13 13 13 13 13 13 13
13 13 13 13 13 13 13 13 13 12 12 12 12 12 12 12 12 12 12 13 13 14 13 13 13 13 13 13 13 13 13 13 13 13 13 13 13 13 13 13 13 13 13 13 13 13 13 13 12 12 12 12 12 13 13 13 13 13 13 13 14 14 14 14 14 13 13 13 13
13 13 13 13 13 13 13 13 12 12 12 12 12 12 12 12 12 12 12 13 13 14 13 13 13 13 13 13 13 13 13 13 13 13 13 13 13 13 13 13 13 13 13 13 13 13 13 13 12 12 12 12 12 12 13 13 13 13 13 14 14 14 14 14 14 13 13 13 14
13 13 13 13 13 13 13 13 13 13 13 12 12 12 12 12 12 12 13 13 13 14 14 13 14 14 14 13 13 13 13 13 13 13 13 13 13 13 13 13 13 13 13 13 13 13 13 13 12 12 12 12 12 12 13 13 13 13 13 14 14 14 14 14 14 13 14 14 14
13 13 13 13 13 13 13 13 13 13 13 12 12 12 13 13 12 12 13 13 14 14 14 14 14 14 14 13 13 13 13 13 13 13 13 13 13 13 13 13 13 13 13 13 13 13 13 13 12 12 12 12 12 13 13 12 13 13 13 14 14 14 14 13 13 13 14 14 14
13 13 13 13 13 13 13 13 13 13 13 13 12 12 13 12 12 13 13 14 14 14 14 14 14 14 14 13 13 13 13 13 13 13 13 13 13 13 13 13 13 13 13 13 13 13 13 12 12 12 12 12 12 12 13 13 13 13 13 13 13 13 13 13 13 13 14 14 14
13 13 13 13 13 13 13 13 13 13 13 13 13 13 12 12 12 13 14 14 14 14 14 14 14 14 14 13 13 13 13 13 13 13 13 13 13 13 13 13 13 13 13 13 13 13 12 12 12 12 12 12 12 12 13 13 13 13 13 13 13 13 13 13 13 13 14 14 14
13 13 13 13 13 13 13 13 13 13 13 13 13 13 12 12 13 13 14 14 14 14 14 14 14 14 14 13 13 13 13 13 13 13 13 13 13 13 13 13 13 13 13 13 13 13 12 12 12 12 12 12 12 12 13 13 13 13 13 13 13 13 13 13 13 13 13 13 13
13 13 13 13 13 13 13 13 13 13 13 13 13 13 13 13 13 14 14 14 14 14 14 14 14 14 14 13 13 13 13 13 13 13 13 13 13 13 13 13 13 13 13 13 13 13 13 12 12 12 12 12 12 13 13 13 13 13 13 13 13 13 13 14 13 13 13 13 13
13 13 13 13 13 13 13 13 13 13 13 13 13 13 13 13 14 14 14 14 14 14 14 14 14 14 14 14 14 14 14 13 13 13 13 13 13 13 13 13 13 13 13 13 13 13 13 13 13 13 13 13 13 13 13 13 13 13 13 13 13 14 14 14 14 13 13 13 13
13 13 13 13 13 13 13 13 13 13 13 13 13 13 13 13 14 14 14 14 14 14 14 14 14 14 14 14 14 14 14 13 13 13 13 13 13 13 13 13 13 13 13 13 13 13 13 13 13 13 13 13 13 13 13 13 13 13 13 14 14 14 14 14 14 14 13 13 13
11 12 13 13 13 13 13 13 13 13 13 13 13 13 13 13 14 14 14 14 14 14 14 14 14 14 14 14 14 14 13 13 13 13 13 13 13 13 13 13 13 13 13 13 13 13 13 13 13 13 13 13 13 13 13 13 13 13 13 14 14 14 14 14 14 14 14 13 13
10 11 11 12 13 13 13 13 13 13 13 13 13 13 13 13 14 14 14 14 14 14 14 13 13 13 13 13 13 13 13 13 13 13 13 13 13 13 13 13 13 13 13 13 13 13 13 13 13 13 13 13 13 13 13 13 13 13 14 14 14 14 14 14 14 14 14 13 13
9 10 10 11 12 13 13 13 13 13 13 13 14 14 14 14 14 14 14 14 14 14 14 14 13 13 13 14 13 13 13 13 13 13 13 13 13 13 13 13 13 13 13 13 13 13 13 13 13 13 13 13 13 13 13 13 13 13 13 13 14 14 14 14 14 14 13 13 13
9 9 10 11 11 12 13 13 13 13 13 14 14 14 14 13 13 14 14 14 14 14 14 14 14 14 14 14 13 13 13 13 13 13 13 13 13 13 13 13 13 13 13 13 13 13 13 13 13 13 13 13 13 13 13 13 13 13 13 13 13 13 13 13 13 13 13 13 13
9 9 10 11 11 12 12 13 13 13 13 14 14 14 14 13 13 13 13 13 14 14 14 14 14 14 14 14 13 13 13 13 13 13 13 13 13 13 13 13 13 13 13 13 13 13 13 13 13 13 13 13 13 13 13 13 13 13 13 13 13 13 13 13 13 13 13 12 12
9 9 9 11 11 12 12 13 13 13 13 13 14 14 14 13 13 13 13 13 13 14 14 14 14 14 14 14 14 13 13 13 13 13 13 13 13 13 13 13 13 13 13 13 13 13 13 13 13 13 13 13 13 13 13 13 13 13 13 13 13 13 13 13 13 12 12 12 12
9 9 9 10 11 12 12 12 13 13 13 13 13 13 14 14 14 13 13 13 13 14 14 14 14 14 14 14 14 14 13 13 13 13 13 13 13 13 13 13 13 13 13 13 13 13 13 13 13 13 13 13 13 13 13 13 13 13 13 13 12 12 12 12 12 12 12 12 12
9 9 9 10 10 11 11 12 12 13 13 13 13 14 14 14 14 14 14 14 14 14 14 14 14 14 14 14 14 14 14 13 13 13 13 13 13 13 13 13 13 13 13 13 13 13 13 13 13 13 13 13 13 13 13 13 13 13 13 13 12 12 12 12 12 12 12 12 12
8 9 9 9 10 10 11 11 12 12 12 13 13 14 14 14 14 14 14 14 14 14 14 14 14 14 14 14 14 14 14 14 13 13 13 13 13 13 13 13 13 13 13 13 13 13 13 13 13 13 13 13 13 13 13 13 13 13 13 13 12 12 12 11 11 11 11 11 11
8 8 9 9 9 10 10 10 11 11 12 12 13 13 14 14 14 14 15 15 15 14 14 14 14 14 14 14 14 14 14 14 14 13 13 13 13 13 13 13 13 13 13 13 13 13 13 13 13 13 13 13 13 13 12 12 12 12 12 12 12 12 12 11 11 11 11 11 11
7 8 8 8 9 9 9 10 10 10 11 12 12 13 14 14 14 14 15 15 15 15 14 14 14 14 14 14 14 14 14 14 14 14 13 13 13 13 13 13 13 13 13 13 13 13 13 13 13 13 13 13 13 13 12 12 12 12 12 12 12 12 12 11 11 11 11 11 10
7 7 8 8 8 9 9 9 10 10 10 11 11 12 13 14 14 14 14 15 15 15 14 14 14 14 14 14 14 14 14 14 14 14 14 13 13 13 13 13 13 13 13 13 13 13 13 13 13 13 13 13 13 13 12 12 12 12 12 12 12 12 12 11 11 11 10 10 10
7 7 7 7 8 8 9 9 9 10 10 10 11 11 12 13 13 14 14 14 14 14 14 14 14 14 14 14 14 14 14 14 14 14 14 14 13 13 13 13 13 13 13 13 13 13 13 13 13 13 13 13 13 13 12 12 12 12 12 12 12 12 11 11 11 10 10 10 9
7 7 7 7 7 8 8 9 9 9 10 10 10 11 12 12 13 14 14 14 14 14 14 14 14 14 14 14 14 14 14 14 14 14 14 14 14 14 14 14 14 14 14 13 13 13 13 13 13 13 13 13 13 13 12 12 12 12 12 12 12 11 11 11 11 10 10 9 9
6 6 7 7 7 7 8 8 9 9 10 10 10 11 11 12 13 14 14 14 14 14 14 14 14 14 14 14 14 14 14 14 14 14 14 14 14 14 14 14 14 14 14 14 13 13 13 13 13 13 13 13 13 13 12 12 12 12 12 12 12 11 11 11 10 10 10 9 9
6 6 6 7 7 7 7 8 8 9 9 10 10 10 11 12 12 13 14 14 14 14 14 14 14 14 14 14 14 14 14 14 14 14 14 14 14 14 14 14 14 14 14 14 13 13 13 13 13 13 13 13 13 13 12 12 12 12 12 12 12 11 11 11 10 10 10 9 9
6 6 6 6 7 7 7 7 8 8 9 10 10 10 10 11 12 13 13 14 14 14 14 14 14 14 14 14 14 14 14 14 14 14 14 14 14 14 14 14 14 14 14 14 14 13 13 13 13 13 13 13 13 12 12 12 12 12 11 11 11 11 11 10 10 10 10 9 9
6 6 6 6 6 7 7 7 8 8 9 9 10 10 10 11 11 12 13 13 14 14 14 14 15 15 15 15 14 14 14 14 14 14 14 14 14 14 14 14 14 14 14 14 14 13 13 13 13 13 12 12 12 12 12 12 11 11 11 11 10 10 10 10 10 10 10 9 9
6 6 6 6 6 6 7 7 7 8 8 9 9 10 10 10 11 11 12 13 13 14 14 14 14 15 15 15 15 15 14 14 14 14 14 14 14 14 14 14 14 14 14 14 13 13 13 13 13 12 12 12 12 12 11 11 11 11 10 10 10 10 10 10 10 10 9 9 9
6 6 6 6 6 6 6 7 7 7 8 8 9 9 10 10 10 11 11 12 13 13 14 14 14 14 14 14 14 14 14 14 14 14 14 14 14 14 14 14 14 14 14 14 13 13 13 13 12 12 12 12 11 11 11 11 11 10 10 10 10 9 9 9 9 9 9 9 9
6 6 6 6 6 6 6 6 7 7 8 8 8 9 9 10 10 11 11 12 12 13 14 14 14 14 14 14 14 14 14 14 14 14 14 14 14 14 13 13 14 14 14 14 14 13 13 13 12 12 12 11 11 11 11 10 10 10 10 9 9 9 9 9 9 8 8 8 8
5 6 6 6 6 6 6 6 7 7 7 8 8 8 9 10 10 11 11 12 12 13 13 14 14 14 14 14 14 14 14 14 14 14 14 14 14 14 13 13 14 14 14 14 14 13 13 13 12 12 12 11 11 11 10 10 10 9 9 9 9 8 8 8 8 8 7 7 7
5 5 6 6 6 6 6 6 6 7 7 7 8 8 9 9 10 11 11 11 12 12 13 14 14 14 14 14 14 14 14 14 14 14 14 14 14 14 14 13 13 14 14 14 13 13 13 13 13 12 12 11 11 11 10 10 9 9 9 8 8 8 7 7 7 7 7 6 6
5 5 5 6 6 6 6 6 6 6 7 7 7 8 9 9 10 10 11 11 12 12 12 13 14 14 14 14 14 14 14 14 14 14 14 14 14 14 14 13 13 13 13 13 13 13 13 13 13 12 12 11 11 11 10 10 9 8 8 8 7 7 6 6 6 6 6 5 5
5 5 5 5 5 6 6 6 6 6 6 7 7 8 8 9 9 10 11 11 12 12 12 13 13 13 13 13 14 14 14 14 14 14 14 14 14 13 13 13 13 13 13 13 13 13 13 13 13 12 12 11 11 11 10 9 9 8 7 7 7 6 6 5 5 5 5 4 4
Height
659 660 661 662 663 665 667 669 671 672 673 676 679 681 684 687 689 692 694 696 697 699 701 703 705 707 710 711 714 716 718 719 721 722 723 725 726 728 730 731 732 733 735 736 738 740 741 743 744 746 747 748 749 751 752 753 754 755 756 757 759 760 761 761 763 764 765 766 766
659 660 661 663 664 666 668 670 672 674 675 677 679 681 684 687 690 692 694 696 697 699 701 703 705 707 709 711 713 716 717 719 720 722 723 725 726 728 729 731 732 733 734 736 737 739 741 742 744 745 746 747 749 750 751 752 753 755 756 757 758 759 760 761 762 763 764 765 766
660 661 662 664 665 666 668 671 672 674 675 678 680 682 685 687 690 692 694 696 697 699 701 703 705 707 709 711 713 715 717 718 720 721 723 725 726 728 729 730 731 733 734 736 737 738 740 741 743 744 746 747 748 749 750 751 752 754 755 756 757 758 760 761 761 762 764 765 766
661 662 663 665 666 666 668 670 671 673 676 679 681 684 686 688 690 692 694 696 698 700 701 702 704 706 708 710 712 715 716 718 719 721 723 725 726 727 729 730 731 732 734 735 736 738 740 741 743 744 745 746 747 748 749 750 751 753 754 755 756 758 759 760 761 762 763 764 765
661 663 664 665 666 667 668 670 671 674 677 680 682 685 687 689 691 692 695 697 699 700 701 702 704 706 708 710 712 714 716 717 719 721 722 724 726 727 728 729 731 732 733 735 736 738 739 741 742 743 744 745 746 747 748 749 751 752 753 755 756 756 758 759 760 761 762 763 764
663 664 665 666 667 668 669 671 672 675 678 681 683 685 687 689 691 693 695 698 699 700 701 702 704 706 708 710 711 713 715 717 719 721 722 724 726 727 728 729 730 731 732 734 736 737 739 740 741 743 744 745 746 746 748 749 750 751 752 753 754 755 757 758 760 761 762 762 763
664 665 666 667 668 670 671 672 674 676 679 681 683 685 687 689 691 693 696 698 699 700 701 703 704 706 707 709 711 713 715 717 719 721 722 724 725 726 727 728 730 731 732 733 735 736 738 740 741 742 743 744 745 746 747 748 749 750 751 752 752 754 756 757 759 760 761 761 762
665 666 667 668 669 671 672 674 675 677 680 682 684 686 687 689 691 693 696 698 699 700 701 703 704 705 707 708 710 712 715 717 719 720 722 723 724 726 727 728 729 730 731 733 734 736 737 739 740 741 742 743 744 745 746 747 749 749 750 750 751 752 754 756 758 759 760 760 761
667 668 669 670 671 672 674 675 676 678 680 682 685 686 688 690 691 693 696 697 699 700 701 702 704 705 706 708 710 712 715 716 718 720 721 722 723 725 726 727 729 730 731 732 734 735 737 738 740 741 741 742 743 744 746 747 748 748 749 749 750 752 754 756 757 757 758 759 760
668 670 671 672 673 674 675 676 677 679 681 683 686 687 688 690 692 694 696 697 699 700 701 702 704 705 707 708 711 712 715 716 717 718 720 721 722 724 726 727 728 729 731 732 733 735 736 737 739 740 741 742 742 744 745 746 747 748 748 749 750 751 753 754 756 756 757 758 759
670 671 672 673 674 675 676 677 679 681 682 685 686 688 689 691 693 695 696 698 699 700 701 702 704 705 707 709 711 712 714 715 716 717 719 720 722 723 725 726 727 728 730 731 733 734 736 737 738 739 740 741 742 743 744 745 746 747 748 749 750 751 752 753 754 755 756 757 758
672 673 674 674 676 676 678 679 681 682 684 686 687 689 691 692 694 695 696 698 699 700 701 702 704 706 707 709 711 712 713 714 715 716 718 720 721 723 724 726 727 728 729 731 732 733 735 736 737 738 739 740 741 742 743 745 746 746 747 748 749 751 751 752 753 754 755 756 757
674 675 676 676 677 678 679 681 682 684 685 687 688 690 692 693 694 696 696 698 699 701 702 703 705 706 707 709 710 711 712 713 714 716 717 719 721 723 724 725 726 727 729 730 731 733 734 735 736 737 738 739 741 741 743 744 745 746 746 747 749 750 751 751 752 753 754 755 756
677 677 678 678 679 680 681 682 684 685 686 688 689 691 692 694 695 696 696 698 700 701 702 703 705 706 707 708 709 710 711 712 714 716 717 719 721 722 724 725 726 727 728 729 731 732 733 734 735 736 737 739 740 741 742 743 744 745 745 746 747 748 749 750 751 752 753 754 755
679 680 680 681 681 682 683 684 685 686 687 688 690 691 692 694 695 696 696 698 700 701 702 703 705 706 707 707 708 710 711 712 714 716 717 719 720 722 723 724 725 726 727 729 730 731 732 733 734 736 736 738 739 740 741 742 743 744 745 746 746 747 748 749 750 751 752 753 754
682 682 682 682 683 684 685 686 686 687 688 689 690 691 693 694 695 696 697 698 700 701 702 703 704 705 706 707 708 710 711 712 714 716 717 719 720 721 722 723 725 726 727 728 729 730 731 732 733 735 736 737 738 739 740 741 742 743 744 745 746 747 748 749 749 750 751 752 753
683 684 685 685 685 685 686 686 687 688 689 689 691 691 693 694 695 696 697 698 700 701 702 703 704 705 706 707 709 710 711 712 714 716 717 718 719 721 721 723 724 725 726 727 728 730 731 732 733 734 735 736 737 738 739 740 741 742 743 744 745 746 747 748 748 749 750 751 752
685 685 686 686 686 686 686 687 688 688 689 690 691 692 693 694 695 696 697 698 700 701 702 703 704 705 706 707 708 710 711 712 714 715 716 717 719 720 721 722 723 724 726 726 728 729 730 731 732 733 734 736 736 737 738 739 740 741 742 743 744 745 746 747 748 749 750 750 751
687 686 686 686 687 688 688 688 688 689 689 690 691 692 693 694 695 696 697 698 700 701 702 703 704 705 706 707 708 709 711 712 713 715 716 717 718 719 720 721 722 724 725 726 727 728 729 730 731 732 734 735 736 736 737 738 739 740 741 742 743 744 745 746 747 748 749 750 750
689 688 687 686 686 687 688 689 689 690 690 691 692 693 694 695 696 697 698 699 700 701 702 703 704 705 706 706 708 709 710 711 713 714 715 716 717 719 720 721 722 723 724 725 726 727 728 729 731 731 733 734 735 736 736 737 739 740 741 742 743 744 744 745 746 747 748 749 750
689 689 689 688 687 688 688 690 691 691 691 692 693 694 695 696 697 698 699 700 701 701 702 703 704 705 706 706 707 709 710 711 712 713 715 716 717 718 719 720 721 722 723 724 725 726 727 728 730 731 732 733 734 735 736 736 738 739 740 741 742 743 744 745 746 746 747 748 749
690 690 690 690 689 689 689 690 691 692 693 693 694 694 695 696 697 698 699 700 700 701 701 702 703 704 705 706 707 708 709 710 711 713 714 715 716 717 718 719 720 721 722 723 724 726 726 728 729 730 731 732 733 734 735 736 737 738 739 740 741 742 743 744 745 746 746 747 748
691 691 691 691 691 691 691 691 691 692 693 694 694 695 695 696 696 696 697 697 698 699 701 702 703 704 705 706 706 707 709 710 711 712 713 714 715 716 717 718 719 720 721 722 723 725 726 727 728 729 730 731 732 733 734 735 736 737 738 739 740 741 742 743 744 745 746 746 747
693 692 692 692 692 692 691 691 691 691 692 693 694 694 695 695 695 695 696 696 697 699 701 702 703 704 705 706 706 707 708 709 710 711 712 713 714 715 716 717 718 719 720 721 722 723 725 726 727 728 729 730 731 732 733 734 735 736 737 738 739 741 741 742 743 744 745 745 746
694 693 693 693 693 692 692 692 691 691 692 692 693 694 694 694 695 695 696 696 698 699 701 702 703 704 705 706 706 707 708 709 709 710 711 712 713 714 715 716 717 718 719 720 721 723 724 725 726 727 728 729 730 731 732 733 734 735 736 737 738 740 741 741 742 743 744 744 745
696 695 694 694 693 693 693 692 692 692 692 692 692 693 693 694 695 695 696 697 698 699 701 701 702 703 704 705 706 706 707 708 709 709 710 711 712 712 714 715 716 717 718 719 721 722 723 724 725 726 727 728 729 730 731 732 733 734 736 736 738 739 739 740 741 742 742 743 744
698 697 696 695 695 694 694 693 693 693 692 692 692 693 694 694 695 696 696 697 698 699 700 701 702 702 703 704 705 706 706 707 708 708 709 710 711 711 712 713 715 716 717 718 720 721 722 723 724 725 726 727 728 729 730 731 732 734 735 736 737 738 738 739 740 741 741 742 743
700 699 698 697 696 695 694 694 694 693 693 692 693 693 694 695 695 696 696 697 698 699 700 700 701 702 702 703 704 704 705 706 706 707 708 709 709 710 711 712 713 715 716 717 718 720 721 722 723 724 725 726 727 728 729 730 731 732 734 735 736 736 737 738 739 739 740 741 742
701 700 699 698 697 696 695 694 694 693 693 693 693 693 694 695 695 695 695 696 697 698 698 699 700 701 701 702 702 703 704 705 706 706 707 708 709 710 711 711 712 714 715 716 717 719 720 721 722 723 724 725 726 727 728 729 730 731 732 733 734 735 736 737 738 738 739 740 741
701 700 699 698 698 697 696 695 694 693 693 693 692 692 693 694 694 694 694 695 696 696 697 698 699 700 700 701 701 702 703 704 704 705 706 707 708 709 710 711 712 713 714 715 716 718 719 720 721 722 723 724 725 726 727 728 729 730 731 732 733 734 735 736 736 737 738 739 740
701 700 699 699 698 698 697 697 696 695 694 693 692 692 692 692 693 693 694 694 695 695 696 697 697 698 699 699 700 701 702 702 703 704 705 706 706 708 709 710 711 712 713 714 716 717 718 719 720 721 722 723 724 725 726 727 728 729 730 731 731 732 734 735 736 736 737 738 739
701 700 699 698 698 698 698 698 697 696 695 694 693 692 692 692 692 692 693 693 694 694 695 696 696 697 697 698 699 700 701 701 702 703 704 705 706 707 708 709 710 711 712 713 715 716 717 718 719 720 721 722 723 724 725 726 727 728 729 730 731 731 732 734 734 735 736 737 738
701 700 699 698 697 696 697 697 697 697 696 696 694 693 692 692 691 692 692 692 693 693 694 694 695 695 696 697 697 698 699 700 701 702 703 704 705 706 707 708 709 710 711 712 714 715 716 717 718 719 720 721 722 723 724 725 726 727 728 729 730 731 732 732 733 734 735 736 737
703 701 700 698 697 696 695 696 696 696 696 696 695 694 693 692 691 691 691 691 692 692 692 693 693 694 695 695 696 697 698 699 700 701 702 703 704 706 706 708 708 709 711 711 713 714 715 716 717 718 719 720 721 722 723 724 725 726 727 728 729 730 731 732 733 733 734 735 736
704 703 701 700 698 697 695 694 694 695 695 695 695 695 694 693 692 691 691 691 691 691 692 692 693 693 694 695 695 696 697 698 699 700 701 702 703 705 706 706 707 708 710 711 712 713 714 715 716 717 718 720 721 722 723 724 725 726 726 727 728 729 730 731 732 733 733 734 735
705 704 703 701 700 698 697 695 694 693 693 694 694 694 693 693 692 691 691 691 691 691 691 691 692 692 693 694 694 695 696 697 698 699 700 701 702 703 705 706 706 707 708 710 711 712 713 714 715 716 717 719 720 721 722 723 724 725 726 726 728 729 730 731 731 732 733 734 734
706 705 704 703 701 700 699 697 695 693 692 692 692 692 691 691 691 691 690 690 690 690 690 690 691 691 692 692 693 694 695 696 697 698 699 700 701 702 703 704 705 706 707 708 710 711 712 713 714 715 716 718 719 720 721 722 723 724 725 726 727 728 729 730 731 731 732 733 734
707 706 705 704 702 701 700 699 697 695 693 692 691 691 690 690 689 689 689 689 689 689 689 689 690 690 691 691 692 693 694 695 696 696 698 699 700 701 702 703 704 705 706 707 708 710 711 712 713 714 715 716 718 719 720 721 722 723 724 726 726 727 729 729 730 731 732 732 733
707 706 705 704 703 702 701 700 698 697 695 693 691 690 689 689 688 688 688 688 688 688 688 688 688 689 690 691 691 692 693 694 695 696 696 697 698 699 700 701 702 703 705 706 707 708 709 711 711 713 714 715 716 717 719 720 721 722 724 725 726 727 728 729 730 731 731 732 733
707 706 705 704 703 702 701 700 699 698 696 694 692 691 689 688 688 687 687 687 687 688 688 688 688 688 689 690 691 691 692 693 694 694 695 696 697 698 699 700 701 702 703 705 706 707 708 709 710 711 712 714 715 716 718 719 720 721 723 724 725 726 727 729 730 731 731 732 733
707 706 705 704 703 702 701 700 699 697 696 695 693 692 690 689 688 687 687 687 687 687 687 688 688 688 688 689 689 690 691 692 692 693 694 695 696 697 698 699 700 701 702 703 705 706 707 707 708 710 711 712 714 715 716 718 719 721 722 723 724 725 726 728 729 730 731 732 733
Wind_Speed
23 23 23 24 24 24 24 23 24 25 26 28 27 26 25 23 20 19 20 20 20 20 20 21 21 21 22 23 25 26 24 23 23 24 24 25 25 24 24 25 25 25 24 24 24 24 25 25 24 24 24 24 25 26 26 26 26 26 26 25 25 24 23 22 21 21 21 22 22
23 23 23 24 25 25 24 24 24 24 25 26 26 26 25 23 21 20 20 20 20 20 21 22 22 23 23 24 26 26 25 24 23 24 24 25 25 24 24 25 25 24 24 24 23 23 23 24 23 23 22 23 24 25 26 26 26 26 26 25 25 24 23 23 22 21 20 20 20
23 23 23 24 24 24 24 23 23 24 25 25 25 25 25 23 21 20 20 20 21 21 22 23 23 24 24 25 26 26 25 24 24 24 24 24 24 24 24 25 25 24 24 23 23 22 23 23 23 22 22 22 23 24 25 25 25 25 25 25 24 24 23 23 22 21 20 20 20
24 24 23 23 24 24 24 23 24 25 25 25 25 25 24 23 22 21 20 20 21 22 23 23 24 24 25 25 26 26 26 25 24 24 24 24 25 25 25 25 24 24 23 23 22 22 22 22 22 22 21 22 23 24 24 24 24 24 24 24 23 23 22 22 21 21 21 21 20
25 24 24 23 24 24 25 26 27 27 26 26 25 24 24 23 22 21 20 20 21 22 23 24 24 25 25 25 26 26 26 24 24 24 24 24 25 25 25 25 24 24 23 23 22 22 22 22 22 21 21 22 22 23 23 24 24 23 23 22 21 21 20 20 20 20 20 21 21
25 25 25 24 24 24 25 27 28 28 27 26 25 24 23 23 22 21 20 20 21 22 23 24 24 25 25 25 26 26 25 24 24 24 24 25 25 25 25 25 24 24 23 22 22 22 22 22 21 21 21 21 22 22 22 23 23 23 22 21 20 18 18 18 19 19 20 20 20
24 26 26 26 25 25 25 27 28 28 27 26 25 24 23 23 23 22 21 20 21 22 23 23 24 24 25 25 26 26 25 25 24 24 25 25 25 25 25 25 24 24 23 22 22 22 22 22 21 21 21 21 21 21 21 22 22 22 22 21 19 17 17 18 18 19 20 20 19
24 25 26 27 27 27 26 27 27 27 26 26 25 24 24 23 23 23 22 22 22 23 23 23 24 24 24 25 25 25 25 25 25 25 25 25 25 25 25 24 24 23 23 22 22 22 22 22 21 21 21 21 21 21 21 22 22 22 21 20 18 18 18 19 19 20 19 19 18
23 24 25 27 28 28 28 27 27 26 26 25 25 25 24 23 23 23 22 22 23 23 23 23 24 24 24 25 25 26 26 26 26 26 25 25 24 25 24 24 24 23 23 22 22 22 22 22 22 22 21 21 21 21 21 21 22 21 20 19 18 18 19 20 20 20 19 18 18
22 23 24 25 26 27 27 27 26 26 26 25 25 24 24 23 23 23 23 23 23 23 23 23 24 24 24 25 26 27 27 27 27 26 25 24 24 24 24 24 24 24 23 23 22 22 22 22 22 22 22 21 21 21 21 21 21 21 20 19 19 19 20 21 20 20 19 18 18
21 22 23 24 25 25 25 24 24 25 25 25 24 24 23 23 23 23 23 23 23 23 23 23 24 24 25 25 26 27 27 27 26 25 24 24 24 24 24 24 24 24 23 23 23 22 22 22 22 22 22 21 21 21 21 21 21 20 19 19 19 20 21 21 20 19 19 18 18
17 18 19 21 23 23 23 22 22 22 22 23 22 22 23 23 23 24 23 23 23 23 23 24 25 25 26 26 26 27 26 26 25 25 24 24 24 24 24 24 24 24 23 23 23 22 22 22 22 22 22 21 21 21 21 21 21 20 19 19 20 20 20 20 20 19 19 19 18
12 13 15 17 19 20 20 20 19 20 21 21 22 22 22 23 23 24 24 23 23 23 24 24 25 26 26 26 26 25 25 24 24 24 24 24 25 25 25 24 24 23 23 23 22 22 22 22 22 22 22 22 21 21 21 21 21 20 20 20 20 20 20 20 19 19 19 19 19
11 11 12 14 16 17 17 17 18 19 21 22 22 22 22 22 23 23 23 23 23 23 24 24 24 25 24 24 24 23 23 23 24 24 25 25 25 25 25 24 24 24 23 23 22 22 22 22 23 23 23 22 22 22 22 21 21 21 21 21 21 21 20 19 19 19 19 19 19
11 12 12 13 13 14 14 15 16 18 20 21 21 21 21 21 22 22 22 22 22 22 23 23 23 22 22 22 22 22 23 23 24 25 25 25 25 25 25 25 24 24 23 23 22 22 22 22 23 23 23 23 22 22 22 22 21 21 21 21 21 20 20 19 20 20 20 20 20
12 11 12 13 13 13 13 13 14 16 18 19 19 19 19 19 20 20 20 21 20 21 21 21 21 21 20 20 21 21 22 23 24 25 25 25 25 25 25 25 24 24 24 23 23 22 22 22 22 22 23 23 23 23 23 22 22 21 21 21 20 20 20 19 20 20 20 21 21
19 13 9 10 12 13 12 12 12 13 15 16 16 16 16 17 17 18 18 19 19 19 19 20 20 20 20 20 20 21 22 23 24 24 25 25 25 25 25 25 25 24 24 24 23 23 22 22 22 22 22 23 23 23 23 22 22 21 21 21 20 20 19 19 20 20 21 21 21
26 22 16 9 7 9 10 11 10 11 11 12 13 13 13 13 14 15 16 17 17 18 18 19 19 20 20 20 20 21 21 22 23 24 24 25 25 25 25 25 25 25 24 24 24 23 23 22 22 22 22 22 23 23 23 22 22 21 21 21 20 20 19 19 20 20 21 22 22
26 25 23 18 11 6 6 7 7 7 7 7 8 9 10 11 12 13 15 16 17 18 18 19 19 20 20 20 21 21 21 22 23 24 24 24 25 25 25 25 24 24 24 24 24 23 23 23 23 23 22 23 23 23 22 22 22 21 21 21 20 20 19 19 20 21 21 22 22
25 26 25 22 18 13 8 5 4 3 4 5 6 7 9 10 12 14 15 17 18 19 19 19 19 20 20 20 21 21 21 22 23 24 24 24 24 24 24 24 24 24 24 24 23 23 23 23 23 23 23 23 23 23 22 22 22 21 21 21 20 20 19 20 20 21 21 21 21
25 26 26 23 19 15 12 8 4 3 4 5 7 9 11 13 14 15 16 17 18 19 19 19 19 20 20 21 21 22 22 22 23 23 24 24 24 24 24 23 23 23 23 23 23 23 23 23 24 23 23 23 23 23 23 22 22 21 21 20 20 19 19 20 21 21 21 21 21
27 26 25 23 18 14 10 7 5 3 3 5 8 10 12 14 15 16 16 15 16 17 18 19 20 20 21 22 22 22 22 22 22 23 23 23 23 23 23 23 23 23 23 23 23 23 23 24 24 24 23 23 23 23 23 22 22 21 21 20 20 20 20 20 21 21 21 21 21
26 26 25 23 19 14 10 6 4 3 1 2 5 8 11 12 12 12 12 12 13 15 16 18 19 20 20 21 22 22 22 22 22 22 23 23 23 22 22 22 22 23 23 23 24 24 24 24 24 24 24 23 23 23 23 22 22 21 21 20 20 20 20 21 21 21 21 21 21
25 24 24 22 20 17 12 8 5 4 4 3 2 4 7 9 9 9 10 10 11 13 15 17 18 18 19 20 20 21 22 22 22 22 22 22 22 22 22 22 22 23 23 23 24 24 24 25 25 24 24 24 23 23 23 23 22 22 21 21 21 21 21 21 21 21 21 21 20
23 23 23 22 21 18 15 11 8 7 6 6 5 4 5 7 8 9 10 11 12 14 15 17 18 18 19 19 20 21 21 21 21 22 22 22 22 22 22 22 22 23 23 23 24 24 25 25 25 25 24 24 24 23 23 23 22 22 22 22 21 21 21 21 21 21 20 20 20
22 22 22 21 20 19 18 15 13 10 7 6 6 6 6 6 8 10 11 13 14 15 16 17 18 19 19 20 20 21 21 21 21 22 22 22 22 22 22 22 23 23 23 24 24 24 25 25 25 25 25 25 24 24 23 23 23 23 22 22 22 21 21 21 21 21 21 20 20
21 21 21 20 19 19 18 17 15 13 10 7 6 6 7 8 8 10 12 14 15 16 17 18 18 19 19 20 20 21 21 21 21 21 22 22 22 22 22 22 23 23 23 24 24 24 25 25 25 25 25 25 25 24 24 24 23 23 23 22 22 22 22 21 21 21 21 21 20
19 19 19 19 19 18 18 17 17 16 14 11 8 6 6 9 10 11 12 13 15 17 18 18 19 19 19 20 20 21 21 21 21 21 21 21 21 22 22 22 23 23 23 24 24 24 25 25 25 25 25 25 25 25 25 24 24 24 23 23 23 23 22 22 21 21 21 21 20
20 19 18 18 18 18 18 18 18 18 17 14 10 7 5 7 9 10 11 12 14 16 18 18 19 19 19 19 20 20 21 21 21 21 21 21 21 21 22 22 22 23 23 23 23 24 25 25 25 26 26 25 25 25 25 24 24 24 24 24 24 23 23 22 22 21 21 21 20
22 20 19 18 17 18 18 18 18 18 17 16 12 9 7 6 6 8 9 11 13 16 17 18 18 18 19 19 20 20 20 20 21 21 21 21 21 21 21 22 22 22 23 23 23 24 24 25 25 26 26 26 26 25 25 25 25 24 24 24 24 24 24 23 23 22 22 21 20
23 22 21 19 18 17 17 17 17 17 17 16 15 12 9 8 7 6 7 10 12 14 15 17 17 18 19 19 19 19 19 20 20 20 20 21 21 21 21 22 22 22 22 23 23 24 24 25 25 26 26 26 26 25 25 25 25 25 25 25 25 25 25 24 24 23 22 22 21
24 24 23 21 20 19 18 17 16 16 16 16 15 14 12 10 8 6 6 8 10 12 14 16 17 18 18 18 18 19 19 19 20 20 20 21 21 21 21 22 22 22 22 22 23 23 24 25 25 26 26 26 26 25 25 25 25 25 25 25 25 26 25 25 24 24 23 23 22
25 25 24 23 23 22 20 18 17 15 15 15 15 15 14 12 9 7 7 7 9 11 13 15 16 17 18 18 18 18 18 19 20 20 21 21 21 21 22 22 22 22 22 22 23 23 24 25 25 26 26 26 26 25 25 24 24 24 25 25 25 25 25 25 25 24 24 23 22
25 25 25 24 25 24 23 22 19 17 15 14 13 14 14 13 11 9 8 8 9 10 12 13 14 15 16 17 18 18 19 19 20 20 21 21 21 22 22 22 22 22 22 22 22 23 24 25 25 26 26 26 26 25 25 24 24 24 24 25 25 24 25 25 25 24 24 23 23
24 24 24 24 24 25 25 24 22 20 17 14 13 13 13 13 12 11 9 9 9 10 11 12 13 14 15 16 17 18 19 20 20 21 21 22 22 22 22 22 22 22 22 22 22 23 24 25 25 26 26 26 25 25 25 25 24 24 24 24 24 24 24 24 24 24 24 23 23
24 23 23 23 24 24 24 25 24 22 19 16 15 14 14 13 12 11 9 9 9 11 12 13 13 14 15 16 17 18 19 20 21 21 22 22 22 23 23 23 23 22 22 22 22 23 24 25 25 26 26 26 25 24 24 24 24 24 24 24 24 24 24 24 24 24 24 23 23
24 22 22 22 22 22 23 23 23 23 21 19 18 17 16 15 14 11 9 9 9 11 12 13 14 15 16 17 18 19 20 21 21 22 22 23 23 23 24 23 23 23 23 22 23 23 24 25 26 26 27 27 26 25 24 24 24 23 23 23 23 23 24 24 24 23 23 23 23
24 22 21 21 21 21 21 21 22 22 22 21 20 19 18 17 16 14 11 10 10 11 13 14 15 16 16 17 18 19 20 21 22 23 23 24 24 24 24 24 24 24 24 23 24 24 25 26 27 27 28 28 27 26 25 24 23 23 22 22 22 22 22 22 22 22 23 23 23
24 22 21 20 20 20 20 20 20 21 21 22 21 20 19 18 18 16 13 11 11 11 13 15 16 16 17 17 18 19 20 21 22 23 24 24 25 25 25 25 25 25 24 25 25 26 26 26 27 28 28 28 28 27 26 24 23 23 22 22 21 21 21 21 21 21 21 21 21
24 22 20 19 19 19 19 20 20 20 21 21 21 21 20 20 19 17 14 12 11 11 13 15 18 18 18 17 18 20 21 21 22 23 24 24 25 25 25 25 25 25 25 26 26 27 28 28 28 28 29 29 28 28 27 25 24 23 22 21 21 20 20 20 20 20 20 20 20
25 23 21 19 19 19 19 19 20 20 20 20 21 21 21 20 19 17 15 13 12 11 12 16 19 20 18 17 18 19 21 22 22 23 24 24 24 25 25 25 25 25 25 26 28 29 29 29 29 30 30 29 29 28 27 26 24 23 22 22 21 21 20 19 19 19 19 19 19
Wind_Direction
135 135 136 137 137 137 138 140 141 140 141 143 145 148 150 151 153 156 159 161 162 164 165 166 167 169 173 177 179 180 181 183 185 186 188 189 189 189 188 189 191 194 196 198 199 200 200 200 199 199 201 203 205 207 208 208 208 208 209 210 213 215 217 219 220 220 221 222 225
131 132 134 136 137 137 138 139 139 139 140 143 144 146 148 150 153 155 158 161 163 164 165 167 169 171 175 179 181 181 181 183 185 186 188 189 190 190 189 190 192 195 197 198 198 198 198 197 197 197 198 201 203 204 206 208 208 208 209 211 214 216 219 221 223 225 226 228 230
130 132 134 136 137 137 137 138 138 137 137 140 143 146 149 151 153 155 158 162 165 166 167 168 171 174 177 180 181 181 182 184 185 186 187 189 190 190 190 191 193 195 197 198 199 198 198 197 196 196 197 199 201 202 204 206 208 209 210 212 216 219 221 223 226 228 230 232 234
135 134 135 136 137 138 138 138 137 138 140 143 145 148 150 153 154 156 160 165 167 169 170 170 172 175 179 180 181 181 183 185 186 186 187 189 191 191 191 192 193 195 197 199 199 199 198 197 195 195 197 199 200 201 203 206 208 210 212 215 218 220 223 227 229 231 232 234 235
139 138 137 137 137 138 140 140 141 142 145 147 148 149 151 153 155 157 162 168 170 173 173 173 173 176 179 181 181 181 182 185 186 187 188 190 191 191 192 192 194 196 197 199 199 200 199 198 196 196 198 200 202 203 204 207 209 211 213 215 218 222 226 229 232 233 234 235 236
141 142 141 140 138 139 140 142 144 146 147 149 150 150 152 154 156 160 165 171 174 175 175 175 175 176 178 180 180 181 182 184 186 188 189 190 191 191 191 193 195 197 198 199 200 200 200 198 195 196 199 202 203 205 208 210 211 211 213 214 217 221 226 231 233 234 234 235 237
143 143 143 143 142 140 140 142 145 147 149 150 151 152 155 158 160 164 168 173 175 176 176 176 176 176 177 179 180 181 182 184 187 189 190 190 190 190 191 193 195 197 199 199 199 200 199 198 196 196 198 201 202 205 208 211 212 212 212 213 215 217 222 228 231 233 233 234 236
143 143 144 145 145 145 144 144 145 147 150 152 154 156 158 161 164 167 171 174 176 176 177 177 178 178 179 180 180 181 183 185 186 188 189 190 190 190 191 193 196 198 200 200 200 199 199 198 197 197 198 200 201 204 208 211 212 213 212 213 213 215 219 224 228 230 231 233 234
139 141 143 145 147 147 148 148 149 150 152 155 158 161 163 165 167 170 173 176 177 178 178 179 180 181 181 182 182 183 184 185 186 187 189 190 190 190 191 193 196 198 200 201 201 200 199 198 198 199 200 201 202 205 208 211 212 213 214 214 214 216 219 223 226 228 229 231 233
135 138 142 144 146 148 149 149 151 152 155 157 161 164 167 169 171 173 175 177 178 178 178 180 181 182 182 183 183 184 185 186 186 187 188 190 191 192 192 194 196 198 199 200 201 201 200 199 198 200 202 203 204 206 209 212 213 214 215 216 217 218 220 223 225 227 229 231 232
129 136 140 143 146 148 148 148 149 152 155 158 162 166 169 171 173 175 178 179 178 178 180 182 183 183 183 184 185 185 186 186 186 187 189 191 193 194 194 196 197 199 199 200 201 200 200 199 199 200 202 204 205 207 210 213 214 215 216 217 218 219 220 223 226 228 230 232 233
117 127 135 141 145 147 148 148 149 153 157 161 165 168 170 172 175 177 178 179 178 180 182 185 185 184 184 185 185 186 186 186 187 188 190 192 194 196 196 197 199 200 200 201 201 200 199 199 200 200 201 203 205 208 211 213 215 215 215 216 218 220 221 223 227 230 232 233 234
108 117 127 136 142 146 148 150 154 158 162 165 167 169 171 173 175 177 177 178 179 181 183 186 186 186 185 185 185 185 186 187 189 190 192 194 196 196 197 198 200 200 201 201 202 200 200 200 201 202 202 203 205 209 212 214 215 214 214 215 218 220 222 224 228 231 233 233 233
109 116 124 132 138 143 147 151 155 160 163 165 166 168 170 172 175 176 177 178 181 182 183 185 185 186 186 187 186 187 188 190 191 192 193 195 196 197 197 198 200 200 201 201 202 202 201 201 202 203 204 204 206 209 213 215 216 216 215 216 219 221 224 226 229 230 231 231 232
103 116 124 131 136 139 143 147 152 156 160 162 164 166 167 169 173 175 177 179 181 183 184 183 184 186 188 190 190 190 191 192 192 193 194 195 196 197 197 198 199 200 201 201 202 203 204 204 204 205 206 206 208 211 213 216 217 218 219 220 223 225 227 228 230 231 231 231 231
68 99 120 131 135 137 139 142 147 152 156 159 162 164 166 167 171 174 176 178 181 183 184 184 184 186 188 191 193 193 192 192 193 194 194 196 197 197 198 198 200 200 201 201 202 203 205 206 207 208 208 209 210 212 214 216 218 220 222 224 227 229 230 231 232 232 233 233 231
38 49 84 120 132 135 135 137 140 146 153 158 162 165 167 169 172 175 178 181 184 185 186 186 187 186 187 190 192 192 192 193 194 195 196 197 198 198 199 200 201 201 202 202 202 203 205 207 209 210 211 211 212 214 216 217 219 221 224 227 229 231 232 234 235 235 236 234 233
32 31 35 56 103 125 128 126 128 135 146 156 163 167 171 174 177 181 185 189 190 191 191 190 189 188 188 188 190 192 193 194 195 197 199 200 201 201 201 201 203 203 203 203 203 204 205 207 209 210 212 212 214 215 217 219 221 223 225 227 229 231 232 234 236 238 237 235 234
28 28 28 29 36 67 105 116 122 130 143 157 167 175 182 186 189 192 194 197 199 200 198 195 192 191 190 190 191 193 195 197 199 200 202 203 203 203 203 203 204 204 204 204 205 206 207 208 209 210 211 212 214 215 217 219 221 223 226 227 229 230 231 234 236 238 237 236 234
25 25 26 27 28 32 42 69 108 142 161 170 174 182 191 195 198 200 200 201 203 204 203 199 195 193 193 193 194 195 197 200 202 203 203 204 204 204 204 204 204 204 204 205 206 207 208 209 210 211 212 213 213 215 217 219 221 223 224 226 227 229 231 233 235 236 236 234 232
21 22 24 27 29 29 31 39 66 121 172 188 188 188 189 190 194 195 196 197 200 202 202 201 199 197 196 196 197 197 199 201 203 204 204 205 205 206 206 205 204 205 205 206 207 208 209 210 211 212 213 214 214 215 216 217 219 221 222 224 225 227 229 232 233 233 233 232 230
16 19 22 24 26 28 30 32 42 73 145 190 201 201 198 195 195 194 192 190 192 195 199 201 203 202 201 200 199 200 200 201 203 205 206 206 207 207 208 207 206 205 206 207 208 209 210 211 212 213 213 214 214 216 216 217 217 218 219 221 222 224 227 229 230 231 231 230 230
13 15 18 20 22 24 26 27 24 21 32 184 206 212 213 212 210 208 204 200 198 198 201 203 205 205 205 204 203 202 201 201 203 205 206 207 207 208 208 207 207 207 208 209 209 210 210 211 212 213 213 213 214 215 216 217 217 216 217 218 220 222 224 226 227 228 229 229 230
11 13 14 16 18 20 22 23 17 351 331 318 260 230 227 228 227 227 226 223 217 213 210 210 210 210 210 208 207 205 203 202 202 204 205 206 207 207 207 208 208 209 210 211 212 212 211 210 210 211 212 212 213 214 215 216 216 216 216 216 217 219 220 222 224 225 227 228 230
9 10 12 14 15 16 19 22 20 5 339 314 295 270 246 237 233 232 232 230 227 223 219 217 215 214 212 211 209 207 206 205 204 204 204 205 206 206 206 207 208 210 212 213 214 214 213 212 212 210 210 210 211 213 214 215 215 216 216 216 216 216 217 219 221 223 225 227 229
6 7 9 10 12 14 15 18 17 12 359 332 301 277 255 240 232 229 228 228 228 226 223 220 218 215 213 211 209 208 207 207 206 206 204 204 204 205 206 207 208 210 212 214 214 215 214 214 214 213 211 210 210 210 210 212 213 214 215 216 216 216 215 216 218 220 223 226 227
2 3 4 6 8 10 12 12 11 10 7 359 330 288 255 235 228 226 226 227 228 227 225 222 219 216 213 211 209 207 207 207 207 207 206 205 204 204 205 206 208 210 212 214 215 215 214 215 215 215 213 211 210 209 208 208 209 211 212 214 215 216 216 216 216 218 220 221 223
358 358 359 1 3 5 7 8 7 5 3 1 351 318 266 234 224 222 224 226 227 226 224 222 219 217 213 211 210 209 208 208 207 208 207 207 206 205 205 207 209 211 213 214 214 214 214 215 215 215 215 213 211 210 210 208 207 208 209 211 214 216 216 216 217 217 217 216 217
355 355 355 356 358 0 3 5 5 2 357 354 351 340 307 257 233 225 224 226 226 225 223 220 218 215 213 212 212 211 211 210 209 208 208 208 208 208 208 209 210 212 214 214 214 214 214 214 215 216 216 215 212 210 209 208 207 207 208 210 212 214 215 214 215 215 214 213 211
354 353 353 353 354 356 359 1 1 359 355 351 347 342 332 310 272 245 233 229 228 227 225 221 218 215 213 214 214 213 212 211 211 210 209 209 209 210 211 212 213 214 215 215 214 213 213 214 215 215 215 215 213 211 209 208 208 208 208 210 212 213 213 214 214 214 213 211 208
353 352 351 350 350 352 353 356 358 358 356 351 347 343 338 331 314 282 251 237 233 231 227 223 219 216 216 217 217 215 214 213 212 212 212 213 213 213 213 214 215 216 217 216 215 214 213 214 214 215 215 214 213 211 210 209 209 209 210 211 213 213 213 213 214 214 213 210 207
353 351 350 348 347 347 348 350 353 355 355 353 350 345 340 333 320 298 268 247 238 233 228 223 219 218 218 218 218 217 217 215 215 215 216 217 216 216 216 216 217 218 218 217 216 214 213 213 213 214 214 213 212 212 211 210 210 211 212 213 214 214 213 213 213 214 213 212 209
352 351 349 346 344 344 344 345 346 349 352 354 352 348 342 335 324 305 281 258 244 235 230 225 222 220 219 219 218 219 219 219 219 219 220 220 219 218 217 217 218 219 219 218 216 215 213 213 212 213 213 212 211 211 211 210 209 210 210 212 213 214 214 214 214 214 214 213 210
352 350 348 345 343 342 341 341 342 343 345 349 350 349 345 339 331 317 296 271 252 240 234 231 229 227 226 225 223 222 222 223 223 222 221 220 219 218 217 217 218 219 219 218 216 214 213 212 211 211 211 210 209 209 208 208 207 208 209 210 211 212 213 213 215 215 215 213 211
351 348 346 344 342 340 339 338 338 338 339 340 342 344 344 342 335 324 307 284 263 247 237 233 232 232 232 231 229 227 225 224 223 222 220 219 217 217 216 216 218 219 219 217 215 213 212 210 210 209 208 206 205 205 205 205 205 206 207 209 209 210 211 212 214 215 214 213 211
349 347 344 342 340 339 337 336 335 334 333 333 334 336 338 339 337 330 315 294 273 255 242 234 231 231 231 230 228 227 225 224 223 221 219 217 216 215 215 215 217 219 218 216 213 211 210 209 208 206 204 202 201 201 202 203 203 204 206 207 207 208 209 210 211 212 211 210 209
347 345 343 340 338 336 335 333 332 330 329 328 329 329 331 334 335 333 324 306 283 263 248 238 232 230 229 229 227 226 225 225 223 220 217 216 215 214 213 214 215 217 217 214 212 210 209 207 206 204 202 199 198 198 199 200 200 202 203 203 205 206 208 208 209 208 207 206 206
344 343 341 338 336 334 332 330 328 326 325 324 324 326 328 331 332 331 328 317 297 274 255 243 235 231 230 230 229 228 226 225 223 220 217 215 215 214 213 212 213 215 215 212 209 208 207 207 206 205 202 199 198 197 197 197 197 198 198 199 200 202 203 204 204 204 203 202 202
342 341 339 336 334 332 330 328 325 323 321 321 322 323 326 328 328 327 325 319 305 285 265 249 239 235 232 231 229 227 225 224 223 220 218 216 216 215 213 211 212 213 212 210 207 206 206 206 206 206 204 201 199 198 197 196 194 194 194 194 194 194 196 197 198 198 198 198 198
339 339 337 335 332 330 328 325 323 321 320 320 319 320 322 323 324 323 321 316 307 291 271 252 239 234 232 229 227 224 222 221 220 219 218 217 217 216 214 211 211 211 210 207 205 205 205 206 206 205 204 202 201 199 197 195 192 190 189 189 187 186 187 189 190 191 190 191 191
339 338 336 334 331 329 327 324 322 321 320 320 318 318 320 321 322 320 317 312 305 293 273 251 237 230 227 225 223 220 219 218 218 218 217 217 216 214 212 211 210 210 208 206 204 204 205 206 206 205 203 201 201 200 198 194 190 187 186 186 184 182 180 180 182 182 182 182 183